Location: Chena
(64.8152°N, 147.9227°W)
Time: 14:16:18
(UTC+00:00)

NOAA 18 - Visible Passes

Search period start: 20 April 2021 00:00
Search period end: 30 April 2021 00:00
Orbit: 839 x 861 km, 99.0° (Epoch: 19 April)

Date Brightness Start Highest point End Pass type
(mag) Time Alt. Az. Time Alt. Az. Time Alt. Az.
20 Apr 6.2 07:16:46 10° S 07:22:00 44° W 07:27:15 10° NNW visible
20 Apr 7.6 09:01:27 10° WSW 09:04:09 14° WNW 09:06:52 10° NW visible
21 Apr 6.0 07:04:41 10° S 07:10:01 51° WSW 07:15:22 10° NNW visible
21 Apr 7.5 08:48:44 10° WSW 08:52:01 16° WNW 08:55:18 10° NW visible
22 Apr 5.7 06:52:38 10° S 06:58:03 59° WSW 07:03:28 10° NNW visible
22 Apr 7.4 08:36:10 10° SW 08:39:54 18° W 08:43:38 10° NW visible
23 Apr 7.3 08:23:42 10° SW 08:27:47 21° W 08:31:54 10° NW visible
24 Apr 7.1 08:11:19 10° SW 08:15:42 24° W 08:20:07 10° NNW visible
25 Apr 6.9 07:58:59 10° SSW 08:03:38 28° W 08:08:18 10° NNW visible
26 Apr 6.7 07:46:44 10° SSW 07:51:36 32° W 07:56:28 10° NNW visible
27 Apr 6.5 07:34:32 10° SSW 07:39:33 36° W 07:44:37 10° NNW visible
27 Apr 7.8 09:20:31 10° W 09:21:56 11° WNW 09:23:21 10° NW visible
28 Apr 6.3 07:22:22 10° SSW 07:27:32 42° W 07:32:44 10° NNW visible
28 Apr 7.6 09:07:21 10° W 09:09:46 13° WNW 09:12:10 10° NW visible
29 Apr 7.6 08:54:33 10° WSW 08:57:36 15° WNW 09:00:40 10° NW visible
